Flag for U.S.A. Weather past 2 weeks in Augusta, Georgia, U.S.A.

Now
94 °F

Sunny.


Feels Like: 95 °F
Forecast: 73 / 92 °F
Wind: 10 mph from Southwest

Location: Daniel Field

Current Time: Jul 26, 2014 at 4:12:41 PM

Latest Report: Jul 26, 2014 at 2:53 PM


Visibility: 10 mi

Pressure: 29.99 "Hg

Humidity: 36%

Dew point: 63 °F

Location of AugustaLocation

Historic Weather in Augusta — Graph

°F

Augusta temperature yesterday

Maximum temperature yesterday: 92 °F (at 3:53 PM)
Minimum temperature yesterday: 74 °F (at 11:53 PM)
Average temperature yesterday: 82 °F

Past Weeks' High & Low Weather Summary

 TemperatureHumidityPressure
High96 °F (Jul 12, 3:53 PM)97% (Jul 13, 7:53 AM)30.22 "Hg (Jul 13, 7:53 AM)
Low70 °F (Jul 17, 6:53 AM)34% (Jul 16, 4:53 PM)29.82 "Hg (Jul 15, 4:53 PM)
Average81 °F73%30.02 "Hg
* Reported Jul 11 2:53 PM — Jul 26 2:53 PM, Augusta, Weather by CustomWeather, © 2014

Note: Actual official high and low records may vary slightly from our data, if they occured in-between our weather recording intervals... More about our weather records

Advertising

Augusta weather history for previous 24 hours

 ConditionsComfort  
Time TempWeatherWind HumidityBarometerVisibility
2:53 PM
Jul 26
94 °FSunny.10 mph36%29.99 "Hg10 mi
1:53 PM92 °FSunny.7 mph44%30.01 "Hg10 mi
12:53 PM91 °FBroken clouds.6 mph45%30.01 "Hg10 mi
11:53 AM90 °FPassing clouds.No wind54%30.03 "Hg10 mi
10:53 AM86 °FSunny.No wind65%30.03 "Hg10 mi
9:53 AM82 °FSunny.No wind74%30.03 "Hg10 mi
8:53 AM79 °FSunny.5 mph82%30.03 "Hg10 mi
7:53 AM75 °FSunny.N/A90%30.02 "Hg10 mi
6:53 AM73 °FFog.3 mph97%30.01 "Hg6 mi
5:53 AM75 °FClear.No wind90%29.99 "Hg10 mi
4:53 AM74 °FClear.No wind94%29.98 "Hg10 mi
3:53 AM74 °FClear.No wind94%29.97 "Hg10 mi
2:53 AM74 °FClear.3 mph94%29.98 "Hg10 mi
1:53 AM74 °FPassing clouds.3 mph94%30.01 "Hg8 mi
12:53 AM75 °FMostly cloudy.5 mph90%30.01 "Hg10 mi
11:53 PM
Jul 25
74 °FMostly cloudy.3 mph91%30.03 "Hg10 mi
10:53 PM75 °FClear.No wind82%29.99 "Hg10 mi
10:00 PM75 °FLight rain. Partly cloudy.7 mph85%30.02 "Hg10 mi
8:53 PM80 °FThundershowers. Mostly cloudy.8 mph76%30.01 "Hg10 mi
7:53 PM84 °FPassing clouds.7 mph67%29.98 "Hg10 mi
6:53 PM89 °FOvercast.8 mph57%29.95 "Hg10 mi
5:53 PM89 °FMostly cloudy.N/A55%29.96 "Hg10 mi
4:53 PM92 °FScattered clouds.7 mph51%29.93 "Hg10 mi
Weather by CustomWeather, © 2014

See weather overviewHow to use our weather pages